• In France
  • List of Countries
  • For 7 days
  • Water Temperature
  • Satellite Maps
  • Weather Map
  • Weather Widgets
  • user-avatar
    Login

    Hourly Weather Bammatyurt

    Today, 15 October, Monday

    Time Temperature Precipitation Wind Pressure Humidity
    00:00 +14°C° 0 mm 2 mps 764 mmHg 48%
    01:00 +14°C° 0 mm 2 mps 764 mmHg 48%
    02:00 +12°C° 0 mm 3 mps 764 mmHg 49%
    03:00 +13°C° 0 mm 3 mps 764 mmHg 48%
    04:00 +12°C° 0 mm 3 mps 764 mmHg 49%
    05:00 +12°C° 0 mm 3 mps 764 mmHg 50%
    06:00 +13°C° 0 mm 2 mps 764 mmHg 50%
    07:00 +14°C° 0 mm 2 mps 764 mmHg 47%
    08:00 +16°C° 0 mm 2 mps 764 mmHg 44%
    09:00 +18°C° 0 mm 2 mps 765 mmHg 42%
    10:00 +19°C° 0 mm 3 mps 765 mmHg 42%
    11:00 +19°C° 0 mm 3 mps 765 mmHg 42%
    12:00 +20°C° 0 mm 3 mps 765 mmHg 42%
    13:00 +19°C° 0 mm 3 mps 765 mmHg 44%
    14:00 +19°C° 0 mm 3 mps 765 mmHg 47%
    15:00 +18°C° 0 mm 2 mps 765 mmHg 52%
    16:00 +17°C° 0 mm 2 mps 766 mmHg 55%
    17:00 +16°C° 0 mm 2 mps 766 mmHg 57%
    18:00 +16°C° 0 mm 2 mps 766 mmHg 60%
    19:00 +15°C° 0 mm 1 mps 766 mmHg 60%
    20:00 +15°C° 0 mm 1 mps 766 mmHg 60%
    21:00 +15°C° 0 mm 1 mps 766 mmHg 60%
    22:00 +15°C° 0 mm 1 mps 766 mmHg 60%
    23:00 +15°C° 0 mm 1 mps 766 mmHg 59%

    Tomorrow, 16 October, Tuesday

    Time Temperature Precipitation Wind Pressure Humidity
    00:00 +15°C° 0 mm 1 mps 766 mmHg 59%
    01:00 +15°C° 0 mm 1 mps 766 mmHg 59%
    02:00 +15°C° 0 mm 1 mps 766 mmHg 59%
    03:00 +15°C° 0 mm 1 mps 766 mmHg 59%
    04:00 +15°C° 0 mm 1 mps 766 mmHg 60%
    05:00 +15°C° 0 mm 1 mps 766 mmHg 61%
    06:00 +15°C° 0 mm 1 mps 766 mmHg 62%
    07:00 +16°C° 0 mm 1 mps 766 mmHg 58%
    08:00 +18°C° 0 mm 2 mps 766 mmHg 54%
    09:00 +20°C° 0 mm 2 mps 766 mmHg 49%
    10:00 +21°C° 0 mm 2 mps 766 mmHg 48%
    11:00 +22°C° 0 mm 3 mps 766 mmHg 46%
    12:00 +24°C° 0 mm 3 mps 766 mmHg 45%
    13:00 +24°C° 0 mm 3 mps 766 mmHg 46%
    14:00 +23°C° 0 mm 4 mps 766 mmHg 48%
    15:00 +23°C° 0 mm 4 mps 766 mmHg 49%
    16:00 +21°C° 0 mm 4 mps 766 mmHg 57%
    17:00 +19°C° 0 mm 4 mps 766 mmHg 65%
    18:00 +17°C° 0 mm 4 mps 766 mmHg 73%
    19:00 +17°C° 0 mm 3 mps 766 mmHg 75%
    20:00 +17°C° 0 mm 3 mps 766 mmHg 77%
    21:00 +16°C° 0 mm 3 mps 766 mmHg 79%
    22:00 +16°C° 0 mm 3 mps 766 mmHg 80%
    23:00 +16°C° 0 mm 3 mps 766 mmHg 81%

    Day after tomorrow, 17 October, Wednesday

    Time Temperature Precipitation Wind Pressure Humidity
    00:00 +16°C° 0 mm 3 mps 766 mmHg 82%
    01:00 +16°C° 0 mm 3 mps 766 mmHg 83%
    02:00 +14°C° 0 mm 4 mps 766 mmHg 83%
    03:00 +14°C° 0 mm 4 mps 766 mmHg 83%
    04:00 +14°C° 0 mm 4 mps 765 mmHg 83%
    05:00 +14°C° 0 mm 4 mps 765 mmHg 83%
    06:00 +14°C° 0 mm 4 mps 765 mmHg 83%
    07:00 +17°C° 0 mm 4 mps 765 mmHg 75%
    08:00 +19°C° 0 mm 4 mps 765 mmHg 67%
    09:00 +21°C° 0 mm 5 mps 765 mmHg 59%
    10:00 +22°C° 0 mm 5 mps 765 mmHg 56%
    11:00 +23°C° 0 mm 6 mps 764 mmHg 53%
    12:00 +24°C° 0 mm 6 mps 764 mmHg 51%
    13:00 +23°C° 0 mm 6 mps 764 mmHg 53%
    14:00 +23°C° 0 mm 6 mps 763 mmHg 55%
    15:00 +23°C° 0 mm 6 mps 763 mmHg 57%
    16:00 +21°C° 0 mm 5 mps 763 mmHg 66%
    17:00 +20°C° 0 mm 5 mps 763 mmHg 75%
    18:00 +18°C° 0 mm 4 mps 763 mmHg 83%
    19:00 +18°C° 0 mm 4 mps 763 mmHg 85%
    20:00 +17°C° 0 mm 3 mps 763 mmHg 87%
    21:00 +17°C° 0 mm 3 mps 763 mmHg 89%
    22:00 +17°C° 0 mm 3 mps 763 mmHg 89%
    23:00 +16°C° 0 mm 3 mps 763 mmHg 89%

    18 October, Thursday

    Time Temperature Precipitation Wind Pressure Humidity
    00:00 +16°C° 0 mm 3 mps 763 mmHg 89%
    01:00 +16°C° 0 mm 2 mps 763 mmHg 89%
    02:00 +16°C° 0 mm 2 mps 763 mmHg 89%
    03:00 +16°C° 0 mm 2 mps 763 mmHg 88%
    04:00 +15°C° 0 mm 2 mps 763 mmHg 88%
    05:00 +15°C° 0 mm 2 mps 763 mmHg 88%
    06:00 +15°C° 0 mm 2 mps 763 mmHg 87%
    07:00 +17°C° 0 mm 2 mps 763 mmHg 81%
    08:00 +19°C° 0 mm 2 mps 763 mmHg 74%
    09:00 +20°C° 0 mm 2 mps 763 mmHg 68%
    10:00 +21°C° 0 mm 2 mps 763 mmHg 63%
    11:00 +24°C° 0 mm 3 mps 763 mmHg 59%
    12:00 +25°C° 0 mm 3 mps 762 mmHg 54%
    13:00 +23°C° 0 mm 4 mps 762 mmHg 55%
    14:00 +23°C° 0 mm 4 mps 762 mmHg 56%
    15:00 +23°C° 0 mm 4 mps 762 mmHg 57%
    16:00 +21°C° 0 mm 4 mps 762 mmHg 66%
    17:00 +20°C° 0 mm 3 mps 762 mmHg 75%
    18:00 +18°C° 0 mm 3 mps 763 mmHg 83%
    19:00 +18°C° 0 mm 3 mps 763 mmHg 86%
    20:00 +17°C° 0 mm 3 mps 763 mmHg 89%
    21:00 +17°C° 0 mm 3 mps 763 mmHg 92%
    22:00 +17°C° 0 mm 3 mps 763 mmHg 91%
    23:00 +16°C° 0 mm 3 mps 763 mmHg 91%

    19 October, Friday

    Time Temperature Precipitation Wind Pressure Humidity
    00:00 +16°C° 0 mm 3 mps 763 mmHg 91%
    01:00 +16°C° 0 mm 3 mps 763 mmHg 90%
    02:00 +16°C° 0 mm 3 mps 762 mmHg 89%
    03:00 +16°C° 0 mm 3 mps 762 mmHg 88%
    04:00 +16°C° 0 mm 3 mps 762 mmHg 87%
    05:00 +16°C° 0 mm 3 mps 762 mmHg 86%
    06:00 +14°C° 0 mm 3 mps 762 mmHg 85%
    07:00 +17°C° 0 mm 3 mps 762 mmHg 77%
    08:00 +19°C° 0 mm 3 mps 762 mmHg 70%
    09:00 +21°C° 0 mm 4 mps 763 mmHg 62%
    10:00 +22°C° 0 mm 4 mps 762 mmHg 58%
    11:00 +23°C° 0 mm 5 mps 762 mmHg 54%
    12:00 +25°C° 0 mm 5 mps 762 mmHg 50%
    13:00 +25°C° 0 mm 5 mps 762 mmHg 52%
    14:00 +25°C° 0 mm 5 mps 761 mmHg 54%
    15:00 +23°C° 0 mm 6 mps 761 mmHg 57%
    16:00 +22°C° 0 mm 5 mps 761 mmHg 65%
    17:00 +20°C° 0 mm 5 mps 761 mmHg 73%
    18:00 +17°C° 0 mm 5 mps 761 mmHg 81%
    19:00 +17°C° 0 mm 5 mps 761 mmHg 81%
    20:00 +18°C° 0 mm 4 mps 761 mmHg 82%
    21:00 +18°C° 0 mm 4 mps 761 mmHg 82%
    22:00 +17°C° 0 mm 4 mps 761 mmHg 81%
    23:00 +17°C° 0 mm 4 mps 761 mmHg 79%

    20 October, Saturday

    Time Temperature Precipitation Wind Pressure Humidity
    00:00 +17°C° 0 mm 4 mps 761 mmHg 78%
    01:00 +17°C° 0 mm 4 mps 760 mmHg 77%
    02:00 +17°C° 0 mm 4 mps 760 mmHg 76%
    03:00 +17°C° 0 mm 3 mps 760 mmHg 76%
    04:00 +16°C° 0 mm 3 mps 760 mmHg 75%
    05:00 +16°C° 0 mm 3 mps 760 mmHg 74%
    06:00 +16°C° 0 mm 3 mps 760 mmHg 73%
    07:00 +18°C° 0 mm 3 mps 760 mmHg 65%
    08:00 +20°C° 0 mm 3 mps 760 mmHg 57%
    09:00 +22°C° 0 mm 3 mps 759 mmHg 50%
    10:00 +24°C° 0 mm 3 mps 759 mmHg 47%
    11:00 +25°C° 0 mm 3 mps 759 mmHg 44%
    12:00 +26°C° 0 mm 3 mps 759 mmHg 41%
    13:00 +26°C° 0 mm 3 mps 758 mmHg 42%
    14:00 +26°C° 0 mm 3 mps 758 mmHg 44%
    15:00 +26°C° 0 mm 3 mps 758 mmHg 46%
    16:00 +24°C° 0 mm 3 mps 758 mmHg 54%
    17:00 +22°C° 0 mm 3 mps 758 mmHg 62%
    18:00 +20°C° 0 mm 3 mps 759 mmHg 70%
    19:00 +19°C° 0 mm 2 mps 759 mmHg 72%
    20:00 +19°C° 0 mm 2 mps 759 mmHg 73%
    21:00 +18°C° 0 mm 2 mps 759 mmHg 75%
    22:00 +18°C° 0 mm 2 mps 758 mmHg 75%
    23:00 +19°C° 0 mm 1 mps 758 mmHg 76%
    Show more